Flag for Morocco Weather past 2 weeks in Rabat, Morocco

Now
63 °F

Passing clouds.


Feels Like: 63 °F
Forecast: N/A
Wind: 1 mph from Southeast

Location: Rabat-Sale

Current Time: Jul 2, 2015 at 11:39:15 PM

Latest Report: Jul 2, 2015 at 11:00 PM


Visibility: 5 mi

Pressure: 30.07 "Hg

Humidity: 94%

Dew point: 61 °F

Location of RabatLocation

Historic Weather in Rabat — Graph

°F

Rabat temperature yesterday

Maximum temperature yesterday: 75 °F (at 12:00 PM)
Minimum temperature yesterday: 64 °F (at 11:00 PM)
Average temperature yesterday: 71 °F

Past Weeks' High & Low Weather Summary

 TemperatureHumidityPressure
High99 °F (Jun 27, 2:30 PM)100% (Jun 27, 6:00 AM)30.12 "Hg (Jun 27, 6:00 AM)
Low55 °F (Jun 25, 5:00 AM)25% (Jun 18, 4:00 PM)29.86 "Hg (Jun 18, 6:00 PM)
Average71 °F73%30.02 "Hg
* Reported Jun 17 10:00 PM — Jul 2 10:30 PM, Rabat, Weather by CustomWeather, © 2015

Note: Actual official high and low records may vary slightly from our data, if they occured in-between our weather recording intervals... More about our weather records

Advertising

Rabat weather history for previous 24 hours

 ConditionsComfort  
Time TempWeatherWind HumidityBarometerVisibility
10:30 PM
Thu, Jul 2
64 °FPassing clouds.1 mph88%30.07 "HgN/A
10:00 PM66 °FPassing clouds.No wind88%30.07 "HgN/A
9:30 PM68 °FPassing clouds.3 mph83%30.07 "HgN/A
9:00 PM70 °FPassing clouds.3 mph83%30.07 "HgN/A
8:00 PM70 °FPassing clouds.7 mph83%30.04 "HgN/A
7:30 PM72 °FPartly sunny.9 mph78%30.04 "HgN/A
7:00 PM72 °FPartly sunny.10 mph78%30.04 "HgN/A
6:30 PM73 °FPartly sunny.10 mph74%30.04 "HgN/A
6:00 PM73 °FPartly sunny.12 mph74%30.04 "HgN/A
5:30 PM75 °FScattered clouds.12 mph69%30.04 "HgN/A
5:00 PM75 °FScattered clouds.13 mph69%30.04 "HgN/A
4:30 PM75 °FScattered clouds.13 mph65%30.04 "HgN/A
4:00 PM77 °FScattered clouds.14 mph61%30.04 "HgN/A
3:30 PM77 °FScattered clouds.14 mph61%30.04 "HgN/A
3:00 PM77 °FScattered clouds.13 mph57%30.04 "HgN/A
2:30 PM77 °FScattered clouds.13 mph61%30.07 "HgN/A
2:00 PM77 °FScattered clouds.13 mph61%30.07 "HgN/A
1:30 PM77 °FScattered clouds.12 mph61%30.07 "HgN/A
1:00 PM77 °FScattered clouds.12 mph57%30.07 "HgN/A
12:30 PM77 °FScattered clouds.12 mph57%30.09 "HgN/A
12:00 PM77 °FScattered clouds.12 mph57%30.09 "HgN/A
11:30 AM77 °FScattered clouds.12 mph61%30.09 "HgN/A
11:00 AM77 °FScattered clouds.10 mph57%30.09 "HgN/A
10:30 AM77 °FPartly sunny.9 mph57%30.09 "HgN/A
10:00 AM75 °FPartly sunny.7 mph65%30.09 "HgN/A
9:30 AM75 °FPartly sunny.5 mph57%30.09 "HgN/A
9:00 AM73 °FPartly sunny.5 mph65%30.09 "HgN/A
8:30 AM73 °FPartly sunny.6 mph65%30.09 "HgN/A
7:30 AM72 °FPartly sunny.2 mph69%30.09 "HgN/A
7:00 AM68 °FPartly sunny.1 mph78%30.09 "Hg4 mi
6:30 AM64 °FPartly sunny.1 mph88%30.07 "HgN/A
6:00 AM63 °FPartly sunny.2 mph88%30.07 "Hg3 mi
5:30 AM63 °FPartly sunny.3 mph83%30.07 "HgN/A
5:00 AM63 °FPassing clouds.3 mph88%30.07 "HgN/A
4:30 AM61 °FPassing clouds.1 mph88%30.07 "HgN/A
3:30 AM64 °FPassing clouds.3 mph83%30.07 "HgN/A
3:00 AM64 °FPassing clouds.2 mph83%30.07 "HgN/A
2:30 AM64 °FPassing clouds.1 mph83%30.07 "HgN/A
2:00 AM64 °FPassing clouds.2 mph83%30.07 "HgN/A
1:30 AM66 °FPassing clouds.2 mph78%30.07 "HgN/A
1:00 AM66 °FPassing clouds.1 mph78%30.09 "HgN/A
12:30 AM66 °FPassing clouds.1 mph78%30.09 "HgN/A
12:00 AM64 °FPassing clouds.3 mph83%30.09 "Hg4 mi
11:30 PM
Wed, Jul 1
64 °FPassing clouds.3 mph83%30.09 "Hg4 mi
11:00 PM64 °FPassing clouds.2 mph83%30.09 "Hg5 mi
Weather by CustomWeather, © 2015

See weather overviewHow to use our weather pages